Tracking 29892 objects as of 21-Nov-2024
HD Live streaming from Space Station
objects crossing your sky now

CZ-6A DEB

Track CZ-6A DEB now!
10-day predictions


NORAD ID: 56659
Int'l Code: 2022-151AGK
Perigee: 779.0 km
Apogee: 817.6 km
Inclination: 98.8 °
Period: 100.7 minutes
Semi major axis: 7169 km
RCS: Unknown
Launch date: November 11, 2022
Source: People's Republic of China (PRC)
Launch site: Taiyaun Space Center, China (TSC)

Note: This is SATELLITE DEBRIS
Your satellite tracking list
Your tracking list is empty




NASA's NSSDC Master Catalog

Two Line Element Set (TLE):
1 56659U 22151AGK 24323.77645564  .00005415  00000-0  21000-2 0  9990
2 56659  98.7554 338.4274 0026952 219.8225 140.0979 14.30162729 85485
Source of the keplerian elements: AFSPC